Time,TemperatureF,DewpointF,PressureIn,WindDirection,WindDirectionDegrees,WindSpeedMPH,WindSpeedGustMPH,Humidity,HourlyPrecipIn,Conditions,Clouds,dailyrainin,SolarRadiationWatts/m^2,SoftwareType,DateUTC
2013-01-06 00:03:00,45.8,43.9,30.07,WSW,250,3.9,5.0,93,0.01,-RA,,0.01,0.0,WeatherDisplay:10.37,2013-01-06 08:03:00,
2013-01-06 00:08:00,45.8,44.2,30.07,WSW,242,5.9,7.0,94,0.01,-RA,,0.01,0.0,WeatherDisplay:10.37,2013-01-06 08:08:00,
2013-01-06 00:13:00,45.7,44.1,30.06,SW,227,7.3,8.1,94,0.01,OVC,,0.01,0.0,WeatherDisplay:10.37,2013-01-06 08:13:00,
2013-01-06 00:18:00,45.6,44.0,30.06,SSW,212,6.8,9.2,94,0.01,OVC,,0.01,0.0,WeatherDisplay:10.37,2013-01-06 08:18:00,
2013-01-06 00:23:00,45.6,44.0,30.05,WSW,248,4.9,6.9,94,0.01,OVC,,0.01,0.0,WeatherDisplay:10.37,2013-01-06 08:23:00,
2013-01-06 00:28:00,45.5,43.9,30.05,South,181,3.2,6.0,94,0.01,OVC,,0.01,0.0,WeatherDisplay:10.37,2013-01-06 08:28:00,
2013-01-06 00:33:00,45.5,43.9,30.06,SW,214,4.9,6.9,94,0.01,-RA,,0.01,0.0,WeatherDisplay:10.37,2013-01-06 08:33:00,
2013-01-06 00:38:00,45.5,43.9,30.06,SW,231,0.6,3.5,94,0.01,-RA,,0.01,0.0,WeatherDisplay:10.37,2013-01-06 08:38:00,
2013-01-06 00:43:00,45.5,43.9,30.05,SW,227,0.3,3.5,94,0.02,-RA,,0.02,0.0,WeatherDisplay:10.37,2013-01-06 08:43:00,
2013-01-06 00:48:00,45.5,43.9,30.05,SW,227,0.3,2.0,94,0.02,-RA,,0.02,0.0,WeatherDisplay:10.37,2013-01-06 08:48:00,
2013-01-06 00:53:00,45.5,43.6,30.05,SW,228,0.2,1.0,93,0.02,-RA,,0.02,0.0,WeatherDisplay:10.37,2013-01-06 08:53:00,
2013-01-06 00:58:00,45.5,43.6,30.05,SW,227,2.2,3.5,93,0.02,-RA,,0.02,0.0,WeatherDisplay:10.37,2013-01-06 08:58:00,
2013-01-06 01:03:00,45.5,43.6,30.05,ESE,114,3.6,4.6,93,0.01,OVC,,0.02,0.0,WeatherDisplay:10.37,2013-01-06 09:03:00,
2013-01-06 01:08:00,45.5,43.6,30.05,ESE,118,2.5,4.0,93,0.01,OVC,,0.02,0.0,WeatherDisplay:10.37,2013-01-06 09:08:00,
2013-01-06 01:13:00,45.5,43.9,30.05,South,191,1.8,3.5,94,0.01,OVC,,0.02,0.0,WeatherDisplay:10.37,2013-01-06 09:13:00,
2013-01-06 01:18:00,45.4,43.8,30.05,SE,136,2.9,5.0,94,0.01,OVC,,0.02,0.0,WeatherDisplay:10.37,2013-01-06 09:18:00,
2013-01-06 01:23:00,45.4,43.8,30.05,SE,125,4.2,6.0,94,0.01,OVC,,0.02,0.0,WeatherDisplay:10.37,2013-01-06 09:23:00,
2013-01-06 01:28:00,45.4,43.8,30.06,ESE,107,5.2,6.9,94,0.01,OVC,,0.02,0.0,WeatherDisplay:10.37,2013-01-06 09:28:00,
2013-01-06 01:33:00,45.4,43.8,30.06,ESE,116,3.0,5.8,94,0.01,OVC,,0.02,0.0,WeatherDisplay:10.37,2013-01-06 09:33:00,
2013-01-06 01:38:00,45.4,43.8,30.06,ESE,103,3.1,4.6,94,0.01,OVC,,0.02,0.0,WeatherDisplay:10.37,2013-01-06 09:38:00,
2013-01-06 01:43:00,45.4,43.8,30.06,ESE,120,1.9,4.0,94,0.00,OVC,,0.02,0.0,WeatherDisplay:10.37,2013-01-06 09:43:00,
2013-01-06 01:48:00,45.4,44.1,30.05,East,91,3.3,4.0,95,0.01,RA,,0.03,0.0,WeatherDisplay:10.37,2013-01-06 09:48:00,
2013-01-06 01:53:00,45.4,44.1,30.05,East,91,1.3,2.3,95,0.01,RA,,0.03,0.0,WeatherDisplay:10.37,2013-01-06 09:53:00,
2013-01-06 01:58:00,45.4,44.1,30.06,ESE,102,3.6,4.0,95,0.01,OVC,,0.03,0.0,WeatherDisplay:10.37,2013-01-06 09:58:00,
2013-01-06 02:03:00,45.3,44.0,30.05,East,91,3.3,4.0,95,0.01,OVC,,0.03,0.0,WeatherDisplay:10.37,2013-01-06 10:03:00,
2013-01-06 02:08:00,45.3,44.0,30.05,SE,135,3.7,5.0,95,0.01,OVC,,0.03,0.0,WeatherDisplay:10.37,2013-01-06 10:08:00,
2013-01-06 02:13:00,45.3,44.0,30.05,ESE,107,1.6,3.5,95,0.01,-RA,,0.03,0.0,WeatherDisplay:10.37,2013-01-06 10:13:00,
2013-01-06 02:18:00,45.2,43.9,30.05,East,92,4.5,6.0,95,0.01,-RA,,0.03,0.0,WeatherDisplay:10.37,2013-01-06 10:18:00,
2013-01-06 02:23:00,45.2,43.9,30.05,East,82,5.4,6.9,95,0.01,-RA,,0.03,0.0,WeatherDisplay:10.37,2013-01-06 10:23:00,
2013-01-06 02:28:00,45.2,43.9,30.05,East,81,3.9,5.0,95,0.01,-RA,,0.03,0.0,WeatherDisplay:10.37,2013-01-06 10:28:00,
2013-01-06 02:33:00,45.1,43.8,30.05,SE,130,2.9,4.0,95,0.01,-RA,,0.03,0.0,WeatherDisplay:10.37,2013-01-06 10:33:00,
2013-01-06 02:38:00,45.1,43.8,30.05,SE,129,2.6,3.5,95,0.02,-RA,,0.04,0.0,WeatherDisplay:10.37,2013-01-06 10:38:00,
2013-01-06 02:43:00,45.1,43.8,30.05,ESE,122,2.8,4.6,95,0.02,-RA,,0.04,0.0,WeatherDisplay:10.37,2013-01-06 10:43:00,
2013-01-06 02:48:00,45.1,43.8,30.05,SE,124,4.6,7.0,95,0.01,-RA,,0.04,0.0,WeatherDisplay:10.37,2013-01-06 10:48:00,
2013-01-06 02:53:00,45.1,43.8,30.06,East,93,2.8,4.0,95,0.01,-RA,,0.04,0.0,WeatherDisplay:10.37,2013-01-06 10:53:00,
2013-01-06 02:58:00,45.1,43.8,30.06,ESE,107,3.2,6.0,95,0.01,-RA,,0.04,0.0,WeatherDisplay:10.37,2013-01-06 10:58:00,
2013-01-06 03:03:00,45.1,43.8,30.05,ENE,61,3.1,4.6,95,0.01,-RA,,0.04,0.0,WeatherDisplay:10.37,2013-01-06 11:03:00,
2013-01-06 03:08:00,45.1,43.8,30.05,East,91,3.8,6.0,95,0.01,-RA,,0.04,0.0,WeatherDisplay:10.37,2013-01-06 11:08:00,
2013-01-06 03:13:00,45.1,43.8,30.05,ESE,120,2.2,4.0,95,0.01,OVC,,0.04,0.0,WeatherDisplay:10.37,2013-01-06 11:13:00,
2013-01-06 03:18:00,45.0,43.7,30.05,SE,134,1.3,3.0,95,0.01,OVC,,0.04,0.0,WeatherDisplay:10.37,2013-01-06 11:18:00,
2013-01-06 03:23:00,44.9,43.6,30.05,ESE,116,1.9,4.0,95,0.01,OVC,,0.04,0.0,WeatherDisplay:10.37,2013-01-06 11:23:00,
2013-01-06 03:28:00,44.7,43.4,30.05,SSE,166,2.7,3.5,95,0.01,OVC,,0.04,0.0,WeatherDisplay:10.37,2013-01-06 11:28:00,
2013-01-06 03:33:00,44.7,43.4,30.05,South,171,2.7,3.5,95,0.01,OVC,,0.04,0.0,WeatherDisplay:10.37,2013-01-06 11:33:00,
2013-01-06 03:38:00,44.6,43.3,30.05,South,172,1.8,3.5,95,0.00,OVC,,0.04,0.0,WeatherDisplay:10.37,2013-01-06 11:38:00,
2013-01-06 03:43:00,44.6,43.3,30.05,South,172,1.7,2.3,95,0.00,OVC,,0.04,0.0,WeatherDisplay:10.37,2013-01-06 11:43:00,
2013-01-06 03:48:00,44.6,43.3,30.05,SSE,161,3.3,4.0,95,0.00,OVC,,0.04,0.0,WeatherDisplay:10.37,2013-01-06 11:48:00,
2013-01-06 03:53:00,44.7,43.4,30.05,ESE,120,2.9,3.5,95,0.00,OVC,,0.04,0.0,WeatherDisplay:10.37,2013-01-06 11:53:00,
2013-01-06 03:58:00,44.8,43.5,30.05,ENE,58,1.4,3.5,95,0.00,OVC,,0.04,0.0,WeatherDisplay:10.37,2013-01-06 11:58:00,
2013-01-06 04:03:00,44.8,43.5,30.05,NE,34,0.4,2.3,95,0.00,OVC,,0.04,0.0,WeatherDisplay:10.37,2013-01-06 12:03:00,
2013-01-06 04:08:00,44.7,43.4,30.06,NE,43,1.2,3.5,95,0.00,OVC,,0.04,0.0,WeatherDisplay:10.37,2013-01-06 12:08:00,
2013-01-06 04:13:00,44.7,43.4,30.06,NE,55,0.3,1.1,95,0.00,OVC,,0.04,0.0,WeatherDisplay:10.37,2013-01-06 12:13:00,
2013-01-06 04:18:00,44.7,43.4,30.06,NE,49,0.1,1.1,95,0.00,OVC,,0.04,0.0,WeatherDisplay:10.37,2013-01-06 12:18:00,
2013-01-06 04:23:00,44.7,43.4,30.06,NE,45,1.7,3.5,95,0.00,OVC,,0.04,0.0,WeatherDisplay:10.37,2013-01-06 12:23:00,
2013-01-06 04:28:00,44.7,43.4,30.06,NE,43,1.7,3.5,95,0.00,OVC,,0.04,0.0,WeatherDisplay:10.37,2013-01-06 12:28:00,
2013-01-06 04:33:00,44.6,43.3,30.06,NE,37,0.0,3.5,95,0.00,OVC,,0.04,0.0,WeatherDisplay:10.37,2013-01-06 12:33:00,
2013-01-06 04:38:00,44.6,43.3,30.06,NNE,16,0.7,4.0,95,0.00,OVC,,0.04,0.0,WeatherDisplay:10.37,2013-01-06 12:38:00,
2013-01-06 04:43:00,44.7,43.4,30.07,NNW,337,0.8,3.5,95,0.00,OVC,,0.04,0.0,WeatherDisplay:10.37,2013-01-06 12:43:00,
2013-01-06 04:48:00,44.6,43.3,30.07,North,10,1.5,8.1,95,0.00,OVC,,0.04,0.0,WeatherDisplay:10.37,2013-01-06 12:48:00,
2013-01-06 04:53:00,44.3,43.0,30.08,NNW,336,2.1,10.4,95,0.00,OVC,,0.04,0.0,WeatherDisplay:10.37,2013-01-06 12:53:00,
2013-01-06 04:58:00,44.1,42.8,30.08,North,349,1.1,5.0,95,0.00,OVC,,0.04,0.0,WeatherDisplay:10.37,2013-01-06 12:58:00,
2013-01-06 05:03:00,43.8,42.5,30.08,NW,326,1.0,3.0,95,0.00,OVC,,0.04,0.0,WeatherDisplay:10.37,2013-01-06 13:03:00,
2013-01-06 05:08:00,43.7,42.4,30.08,NW,320,3.1,4.6,95,0.00,OVC,,0.04,0.0,WeatherDisplay:10.37,2013-01-06 13:08:00,
2013-01-06 05:13:00,43.5,42.2,30.08,WNW,297,3.7,7.0,95,0.00,OVC,,0.04,0.0,WeatherDisplay:10.37,2013-01-06 13:13:00,
2013-01-06 05:18:00,43.4,42.1,30.08,NNW,327,7.3,9.0,95,0.00,OVC,,0.04,0.0,WeatherDisplay:10.37,2013-01-06 13:18:00,
2013-01-06 05:23:00,43.3,42.0,30.08,WNW,299,6.6,9.2,95,0.00,OVC,,0.04,0.0,WeatherDisplay:10.37,2013-01-06 13:23:00,
2013-01-06 05:28:00,43.3,42.0,30.09,WNW,299,8.8,10.4,95,0.00,OVC,,0.04,0.0,WeatherDisplay:10.37,2013-01-06 13:28:00,
2013-01-06 05:33:00,43.2,41.9,30.09,WNW,299,7.6,11.5,95,0.00,OVC,,0.05,0.0,WeatherDisplay:10.37,2013-01-06 13:33:00,
2013-01-06 05:38:00,43.1,41.8,30.09,WNW,290,10.0,13.8,95,0.01,RA,,0.05,0.0,WeatherDisplay:10.37,2013-01-06 13:38:00,
2013-01-06 05:43:00,42.9,41.6,30.09,WNW,299,10.6,15.0,95,0.01,RA,,0.05,0.0,WeatherDisplay:10.37,2013-01-06 13:43:00,
2013-01-06 05:48:00,42.8,41.5,30.10,NW,307,11.3,13.0,95,0.01,OVC,,0.05,0.0,WeatherDisplay:10.37,2013-01-06 13:48:00,
2013-01-06 05:53:00,42.7,41.4,30.10,NW,309,9.0,11.0,95,0.01,OVC,,0.05,0.0,WeatherDisplay:10.37,2013-01-06 13:53:00,
2013-01-06 05:58:00,42.7,41.4,30.11,WNW,284,7.1,11.0,95,0.01,OVC,,0.05,0.0,WeatherDisplay:10.37,2013-01-06 13:58:00,
2013-01-06 06:03:00,42.6,41.3,30.11,NW,322,7.7,11.5,95,0.02,RA,,0.06,0.0,WeatherDisplay:10.37,2013-01-06 14:03:00,
2013-01-06 06:08:00,42.5,41.2,30.11,WNW,291,8.3,11.5,95,0.02,RA,,0.06,0.0,WeatherDisplay:10.37,2013-01-06 14:08:00,
2013-01-06 06:13:00,42.5,41.4,30.12,WNW,299,4.5,6.9,96,0.02,-RA,,0.06,0.0,WeatherDisplay:10.37,2013-01-06 14:13:00,
2013-01-06 06:18:00,42.5,41.4,30.12,NW,325,3.2,8.1,96,0.02,-RA,,0.06,0.0,WeatherDisplay:10.37,2013-01-06 14:18:00,
2013-01-06 06:23:00,42.5,41.4,30.13,NW,320,3.5,5.8,96,0.02,-RA,,0.06,0.0,WeatherDisplay:10.37,2013-01-06 14:23:00,
2013-01-06 06:28:00,42.5,41.4,30.13,NW,322,0.2,3.5,96,0.02,-RA,,0.06,0.0,WeatherDisplay:10.37,2013-01-06 14:28:00,
2013-01-06 06:33:00,42.5,41.4,30.13,WNW,293,0.4,4.0,96,0.02,-RA,,0.06,0.0,WeatherDisplay:10.37,2013-01-06 14:33:00,
2013-01-06 06:38:00,42.5,41.4,30.13,NW,316,4.4,6.0,96,0.01,-RA,,0.06,0.0,WeatherDisplay:10.37,2013-01-06 14:38:00,
2013-01-06 06:43:00,42.5,41.4,30.13,WNW,289,4.5,6.9,96,0.01,-RA,,0.06,0.0,WeatherDisplay:10.37,2013-01-06 14:43:00,
2013-01-06 06:48:00,42.5,41.4,30.13,WNW,291,4.6,6.9,96,0.02,-RA,,0.07,0.0,WeatherDisplay:10.37,2013-01-06 14:48:00,
2013-01-06 06:53:00,42.5,41.4,30.13,WNW,283,6.1,8.1,96,0.02,-RA,,0.07,0.0,WeatherDisplay:10.37,2013-01-06 14:53:00,
2013-01-06 06:58:00,42.5,41.4,30.13,NW,312,6.9,11.5,96,0.02,-RA,,0.07,0.0,WeatherDisplay:10.37,2013-01-06 14:58:00,
2013-01-06 07:03:00,42.5,41.4,30.14,WNW,283,11.5,12.7,96,0.01,-RA,,0.07,0.0,WeatherDisplay:10.37,2013-01-06 15:03:00,
2013-01-06 07:08:00,42.6,41.5,30.14,WNW,284,9.8,11.5,96,0.01,-RA,,0.07,0.0,WeatherDisplay:10.37,2013-01-06 15:08:00,
2013-01-06 07:13:00,42.6,41.5,30.14,WNW,291,9.7,12.7,96,0.01,-RA,,0.07,0.0,WeatherDisplay:10.37,2013-01-06 15:13:00,
2013-01-06 07:18:00,42.6,41.5,30.14,WNW,299,9.8,11.5,96,0.02,-RA,,0.08,0.0,WeatherDisplay:10.37,2013-01-06 15:18:00,
2013-01-06 07:23:00,42.6,41.5,30.14,West,275,9.2,12.0,96,0.02,-RA,,0.08,0.0,WeatherDisplay:10.37,2013-01-06 15:23:00,
2013-01-06 07:28:00,42.6,41.5,30.14,WNW,285,7.9,10.4,96,0.02,-RA,,0.08,0.0,WeatherDisplay:10.37,2013-01-06 15:28:00,
2013-01-06 07:33:00,42.6,41.5,30.14,NW,313,5.8,11.5,96,0.02,-RA,,0.08,0.0,WeatherDisplay:10.37,2013-01-06 15:33:00,
2013-01-06 07:38:00,42.6,41.5,30.14,West,276,6.1,10.4,96,0.02,-RA,,0.08,0.0,WeatherDisplay:10.37,2013-01-06 15:38:00,
2013-01-06 07:43:00,42.5,41.4,30.14,West,277,6.1,8.1,96,0.02,-RA,,0.08,0.0,WeatherDisplay:10.37,2013-01-06 15:43:00,
2013-01-06 07:48:00,42.5,41.4,30.14,WNW,295,5.7,8.1,96,0.01,-RA,,0.08,7.0,WeatherDisplay:10.37,2013-01-06 15:48:00,
2013-01-06 07:53:00,42.5,41.4,30.14,WNW,290,2.4,3.5,96,0.01,-RA,,0.08,9.0,WeatherDisplay:10.37,2013-01-06 15:53:00,
2013-01-06 07:58:00,42.5,41.4,30.14,WNW,301,2.7,3.5,96,0.01,-RA,,0.08,12.0,WeatherDisplay:10.37,2013-01-06 15:58:00,
2013-01-06 08:03:00,42.5,41.4,30.14,WNW,301,0.8,2.3,96,0.01,-RA,,0.08,19.0,WeatherDisplay:10.37,2013-01-06 16:03:00,
2013-01-06 08:08:00,42.5,41.4,30.14,WNW,301,1.2,2.0,96,0.02,-RA,,0.09,23.0,WeatherDisplay:10.37,2013-01-06 16:08:00,
2013-01-06 08:13:00,42.5,41.4,30.14,WNW,300,0.3,1.0,96,0.02,RA,,0.09,26.0,WeatherDisplay:10.37,2013-01-06 16:13:00,
2013-01-06 08:18:00,42.5,41.4,30.14,WNW,301,0.9,2.3,96,0.01,OVC,,0.09,33.0,WeatherDisplay:10.37,2013-01-06 16:18:00,
2013-01-06 08:23:00,42.6,41.5,30.14,West,280,3.1,4.0,96,0.01,OVC,,0.09,35.0,WeatherDisplay:10.37,2013-01-06 16:23:00,
2013-01-06 08:28:00,42.6,41.5,30.15,WNW,282,2.1,3.5,96,0.01,OVC,,0.09,32.0,WeatherDisplay:10.37,2013-01-06 16:28:00,
2013-01-06 08:33:00,42.6,41.5,30.15,West,265,3.0,4.6,96,0.01,OVC,,0.09,25.0,WeatherDisplay:10.37,2013-01-06 16:33:00,
2013-01-06 08:38:00,42.6,41.5,30.15,SW,233,2.5,4.0,96,0.01,OVC,,0.09,14.0,WeatherDisplay:10.37,2013-01-06 16:38:00,
2013-01-06 08:43:00,42.6,41.5,30.15,SW,231,2.5,4.0,96,0.01,OVC,,0.09,18.0,WeatherDisplay:10.37,2013-01-06 16:43:00,
2013-01-06 08:48:00,42.6,41.5,30.15,WSW,242,3.8,5.0,96,0.01,OVC,,0.09,16.0,WeatherDisplay:10.37,2013-01-06 16:48:00,
2013-01-06 08:53:00,42.6,41.5,30.15,WSW,241,4.1,6.0,96,0.02,RA,,0.10,19.0,WeatherDisplay:10.37,2013-01-06 16:53:00,
2013-01-06 08:58:00,42.6,41.5,30.16,SW,235,7.1,8.0,96,0.02,RA,,0.10,19.0,WeatherDisplay:10.37,2013-01-06 16:58:00,
2013-01-06 09:03:00,42.6,41.5,30.16,WSW,243,4.4,6.9,96,0.02,OVC,,0.10,26.0,WeatherDisplay:10.37,2013-01-06 17:03:00,
2013-01-06 09:08:00,42.6,41.5,30.17,WSW,257,6.0,8.0,96,0.01,OVC,,0.10,14.0,WeatherDisplay:10.37,2013-01-06 17:08:00,
2013-01-06 09:13:00,42.6,41.5,30.17,WSW,243,5.2,8.1,96,0.01,OVC,,0.10,16.0,WeatherDisplay:10.37,2013-01-06 17:13:00,
2013-01-06 09:18:00,42.6,41.5,30.18,WSW,252,4.9,6.9,96,0.01,OVC,,0.10,23.0,WeatherDisplay:10.37,2013-01-06 17:18:00,
2013-01-06 09:23:00,42.7,41.6,30.18,WSW,238,3.7,6.9,96,0.01,OVC,,0.10,37.0,WeatherDisplay:10.37,2013-01-06 17:23:00,
2013-01-06 09:28:00,42.8,41.7,30.18,WSW,239,4.0,6.9,96,0.01,OVC,,0.10,30.0,WeatherDisplay:10.37,2013-01-06 17:28:00,
2013-01-06 09:33:00,42.8,41.7,30.18,West,270,4.1,7.0,96,0.01,OVC,,0.10,23.0,WeatherDisplay:10.37,2013-01-06 17:33:00,
2013-01-06 09:38:00,42.9,41.8,30.18,West,268,5.0,6.0,96,0.01,OVC,,0.10,19.0,WeatherDisplay:10.37,2013-01-06 17:38:00,
2013-01-06 09:43:00,42.9,41.8,30.18,WNW,291,6.0,7.0,96,0.01,OVC,,0.10,26.0,WeatherDisplay:10.37,2013-01-06 17:43:00,
2013-01-06 09:48:00,42.9,41.8,30.18,WNW,298,4.9,8.1,96,0.01,OVC,,0.10,21.0,WeatherDisplay:10.37,2013-01-06 17:48:00,
2013-01-06 09:53:00,43.0,41.9,30.18,WNW,292,7.1,9.2,96,0.00,OVC,,0.10,25.0,WeatherDisplay:10.37,2013-01-06 17:53:00,
2013-01-06 09:58:00,43.1,42.0,30.19,WNW,288,5.8,8.1,96,0.00,OVC,,0.10,35.0,WeatherDisplay:10.37,2013-01-06 17:58:00,
2013-01-06 10:03:00,43.2,42.1,30.19,WNW,300,5.1,5.8,96,0.00,OVC,,0.10,35.0,WeatherDisplay:10.37,2013-01-06 18:03:00,
2013-01-06 10:08:00,43.3,42.2,30.19,WNW,302,6.2,7.0,96,0.00,OVC,,0.10,23.0,WeatherDisplay:10.37,2013-01-06 18:08:00,
2013-01-06 10:13:00,43.3,42.2,30.19,West,280,5.3,7.0,96,0.01,RA,,0.11,25.0,WeatherDisplay:10.37,2013-01-06 18:13:00,
2013-01-06 10:18:00,43.3,42.2,30.19,West,277,6.3,7.0,96,0.01,RA,,0.11,25.0,WeatherDisplay:10.37,2013-01-06 18:18:00,
2013-01-06 10:23:00,43.3,42.2,30.19,WNW,301,5.8,7.0,96,0.01,OVC,,0.11,23.0,WeatherDisplay:10.37,2013-01-06 18:23:00,
2013-01-06 10:28:00,43.4,42.3,30.19,WNW,295,5.7,7.0,96,0.01,OVC,,0.11,14.0,WeatherDisplay:10.37,2013-01-06 18:28:00,
2013-01-06 10:33:00,43.4,42.3,30.19,WNW,291,5.9,7.0,96,0.01,OVC,,0.11,30.0,WeatherDisplay:10.37,2013-01-06 18:33:00,
2013-01-06 10:38:00,43.4,42.3,30.19,WNW,286,5.9,7.0,96,0.01,OVC,,0.11,35.0,WeatherDisplay:10.37,2013-01-06 18:38:00,
2013-01-06 10:43:00,43.4,42.3,30.19,WNW,290,6.7,9.2,96,0.01,OVC,,0.11,23.0,WeatherDisplay:10.37,2013-01-06 18:43:00,
2013-01-06 10:48:00,43.4,42.3,30.19,West,278,5.7,8.0,96,0.01,OVC,,0.11,21.0,WeatherDisplay:10.37,2013-01-06 18:48:00,
2013-01-06 10:53:00,43.4,42.3,30.18,SW,233,4.5,6.9,96,0.01,OVC,,0.11,81.0,WeatherDisplay:10.37,2013-01-06 18:53:00,
2013-01-06 10:58:00,43.4,42.3,30.18,WSW,246,5.6,6.0,96,0.01,OVC,,0.11,120.0,WeatherDisplay:10.37,2013-01-06 18:58:00,
2013-01-06 11:03:00,43.6,42.5,30.17,SW,230,5.9,8.1,96,0.01,OVC,,0.11,148.0,WeatherDisplay:10.37,2013-01-06 19:03:00,
2013-01-06 11:09:00,43.8,42.7,30.18,WSW,255,4.8,6.9,96,0.01,OVC,,0.11,158.0,WeatherDisplay:10.37,2013-01-06 19:09:00,
2013-01-06 11:14:00,44.0,42.9,30.17,WNW,285,3.0,4.6,96,0.00,OVC,,0.11,127.0,WeatherDisplay:10.37,2013-01-06 19:14:00,
2013-01-06 11:19:00,44.2,43.1,30.17,WNW,291,4.6,5.8,96,0.00,OVC,,0.11,88.0,WeatherDisplay:10.37,2013-01-06 19:19:00,
2013-01-06 11:24:00,44.3,43.2,30.17,West,274,6.3,10.4,96,0.00,OVC,,0.11,91.0,WeatherDisplay:10.37,2013-01-06 19:24:00,
2013-01-06 11:29:00,44.3,43.2,30.17,WNW,284,4.7,6.9,96,0.00,OVC,,0.11,107.0,WeatherDisplay:10.37,2013-01-06 19:29:00,
2013-01-06 11:34:00,44.3,43.2,30.17,WNW,291,3.1,6.9,96,0.00,OVC,,0.11,69.0,WeatherDisplay:10.37,2013-01-06 19:34:00,
2013-01-06 11:39:00,44.3,43.2,30.16,WSW,256,5.6,8.1,96,0.00,OVC,,0.11,60.0,WeatherDisplay:10.37,2013-01-06 19:39:00,
2013-01-06 11:44:00,44.1,43.0,30.16,West,274,6.0,8.1,96,0.00,OVC,,0.11,46.0,WeatherDisplay:10.37,2013-01-06 19:44:00,
2013-01-06 11:49:00,44.1,43.0,30.16,WNW,300,3.5,6.9,96,0.00,OVC,,0.11,26.0,WeatherDisplay:10.37,2013-01-06 19:49:00,
2013-01-06 11:54:00,44.1,43.0,30.16,WNW,301,0.7,3.5,96,0.00,OVC,,0.11,18.0,WeatherDisplay:10.37,2013-01-06 19:54:00,
2013-01-06 11:59:00,44.1,43.0,30.16,NNW,328,4.5,6.0,96,0.01,RA,,0.12,51.0,WeatherDisplay:10.37,2013-01-06 19:59:00,
2013-01-06 12:04:00,44.2,43.1,30.15,WNW,299,4.1,6.9,96,0.01,RA,,0.12,40.0,WeatherDisplay:10.37,2013-01-06 20:04:00,
2013-01-06 12:09:00,44.2,43.1,30.15,NW,311,5.6,8.1,96,0.01,OVC,,0.12,54.0,WeatherDisplay:10.37,2013-01-06 20:09:00,
2013-01-06 12:11:00,44.1,43.0,30.16,WNW,298,5.1,6.9,96,0.01,OVC,,0.12,54.0,WeatherDisplay:10.37,2013-01-06 20:11:00,
2013-01-06 12:13:00,44.1,43.0,30.16,NW,316,6.3,9.2,96,0.01,OVC,,0.12,53.0,WeatherDisplay:10.37,2013-01-06 20:13:00,
2013-01-06 12:18:00,44.1,43.0,30.15,NW,309,4.1,7.0,96,0.01,OVC,,0.12,90.0,WeatherDisplay:10.37,2013-01-06 20:18:00,
2013-01-06 12:23:00,44.2,43.1,30.15,WNW,301,2.8,5.0,96,0.01,OVC,,0.12,65.0,WeatherDisplay:10.37,2013-01-06 20:23:00,
2013-01-06 12:28:00,44.3,43.2,30.16,NW,314,4.9,6.9,96,0.01,OVC,,0.12,72.0,WeatherDisplay:10.37,2013-01-06 20:28:00,
2013-01-06 12:33:00,44.4,43.3,30.15,NW,320,1.6,5.8,96,0.01,OVC,,0.12,104.0,WeatherDisplay:10.37,2013-01-06 20:33:00,
2013-01-06 12:38:00,44.6,43.5,30.15,NW,311,2.1,5.8,96,0.01,OVC,,0.12,130.0,WeatherDisplay:10.37,2013-01-06 20:38:00,
2013-01-06 12:43:00,44.7,43.6,30.15,NNW,339,6.2,10.4,96,0.01,OVC,,0.12,135.0,WeatherDisplay:10.37,2013-01-06 20:43:00,
2013-01-06 12:48:00,44.8,43.7,30.15,NW,325,2.8,5.0,96,0.01,OVC,,0.12,90.0,WeatherDisplay:10.37,2013-01-06 20:48:00,
2013-01-06 12:53:00,44.9,43.8,30.15,WNW,295,3.4,5.8,96,0.01,OVC,,0.12,81.0,WeatherDisplay:10.37,2013-01-06 20:53:00,
2013-01-06 12:58:00,45.0,43.9,30.15,WNW,301,3.3,5.0,96,0.00,OVC,,0.12,137.0,WeatherDisplay:10.37,2013-01-06 20:58:00,
2013-01-06 13:02:00,45.1,44.0,30.14,WNW,289,5.4,6.9,96,0.00,OVC,,0.12,148.0,WeatherDisplay:10.37,2013-01-06 21:02:00,
2013-01-06 13:07:00,45.2,43.9,30.14,NW,307,4.6,7.0,95,0.00,OVC,,0.12,151.0,WeatherDisplay:10.37,2013-01-06 21:07:00,
2013-01-06 13:12:00,45.4,44.3,30.15,NW,318,2.9,6.9,96,0.00,OVC,,0.12,109.0,WeatherDisplay:10.37,2013-01-06 21:12:00,
2013-01-06 13:17:00,45.4,44.1,30.15,NW,316,3.7,6.0,95,0.00,OVC,,0.12,84.0,WeatherDisplay:10.37,2013-01-06 21:17:00,
2013-01-06 13:22:00,45.4,44.1,30.15,WNW,299,6.5,8.1,95,0.00,OVC,,0.12,91.0,WeatherDisplay:10.37,2013-01-06 21:22:00,
2013-01-06 13:27:00,45.4,44.1,30.15,WNW,294,4.0,7.0,95,0.00,OVC,,0.12,109.0,WeatherDisplay:10.37,2013-01-06 21:27:00,
2013-01-06 13:32:00,45.5,44.2,30.15,NNW,327,4.5,8.1,95,0.00,OVC,,0.12,118.0,WeatherDisplay:10.37,2013-01-06 21:32:00,
2013-01-06 13:37:00,45.4,43.8,30.15,NW,308,2.6,6.0,94,0.00,OVC,,0.12,79.0,WeatherDisplay:10.37,2013-01-06 21:37:00,
2013-01-06 13:42:00,45.4,43.8,30.15,WNW,297,1.9,4.0,94,0.00,OVC,,0.12,130.0,WeatherDisplay:10.37,2013-01-06 21:42:00,
2013-01-06 13:47:00,45.5,43.9,30.15,NW,311,3.5,6.9,94,0.00,OVC,,0.12,111.0,WeatherDisplay:10.37,2013-01-06 21:47:00,
2013-01-06 13:52:00,45.6,44.0,30.15,NW,311,5.3,6.0,94,0.00,OVC,,0.12,83.0,WeatherDisplay:10.37,2013-01-06 21:52:00,
2013-01-06 13:57:00,45.6,44.0,30.15,NW,304,5.2,6.9,94,0.00,OVC,,0.12,83.0,WeatherDisplay:10.37,2013-01-06 21:57:00,
2013-01-06 14:02:00,45.6,44.0,30.15,WNW,284,3.5,4.6,94,0.00,OVC,,0.12,102.0,WeatherDisplay:10.37,2013-01-06 22:02:00,
2013-01-06 14:07:00,45.6,43.7,30.15,WNW,301,4.5,5.8,93,0.00,OVC,,0.12,104.0,WeatherDisplay:10.37,2013-01-06 22:07:00,
2013-01-06 14:12:00,45.7,43.8,30.15,NW,309,3.5,4.6,93,0.00,OVC,,0.12,88.0,WeatherDisplay:10.37,2013-01-06 22:12:00,
2013-01-06 14:17:00,45.7,43.8,30.15,WNW,294,4.6,8.1,93,0.00,OVC,,0.12,88.0,WeatherDisplay:10.37,2013-01-06 22:17:00,
2013-01-06 14:22:00,45.7,43.8,30.15,NW,324,2.9,7.0,93,0.00,OVC,,0.12,88.0,WeatherDisplay:10.37,2013-01-06 22:22:00,
2013-01-06 14:27:00,45.7,43.5,30.15,NNW,328,2.2,5.8,92,0.00,OVC,,0.12,67.0,WeatherDisplay:10.37,2013-01-06 22:27:00,
2013-01-06 14:33:00,45.7,43.5,30.15,NW,325,1.8,4.0,92,0.00,OVC,,0.12,67.0,WeatherDisplay:10.37,2013-01-06 22:33:00,
2013-01-06 14:38:00,45.7,43.5,30.15,NW,314,4.5,8.1,92,0.00,OVC,,0.12,70.0,WeatherDisplay:10.37,2013-01-06 22:38:00,
2013-01-06 14:43:00,45.6,43.4,30.15,NNW,342,2.7,5.0,92,0.00,OVC,,0.12,86.0,WeatherDisplay:10.37,2013-01-06 22:43:00,
2013-01-06 14:48:00,45.6,43.1,30.15,NW,322,2.6,5.8,91,0.00,OVC,,0.12,83.0,WeatherDisplay:10.37,2013-01-06 22:48:00,
2013-01-06 14:53:00,45.6,43.4,30.15,NNW,329,4.2,6.9,92,0.00,OVC,,0.12,88.0,WeatherDisplay:10.37,2013-01-06 22:53:00,
2013-01-06 14:58:00,45.6,43.4,30.15,NW,321,2.1,6.9,92,0.00,OVC,,0.12,104.0,WeatherDisplay:10.37,2013-01-06 22:58:00,
2013-01-06 15:03:00,45.7,43.5,30.15,NW,325,1.0,3.5,92,0.00,OVC,,0.12,97.0,WeatherDisplay:10.37,2013-01-06 23:03:00,
2013-01-06 15:08:00,45.8,43.3,30.15,NNW,341,0.1,3.5,91,0.00,OVC,,0.12,77.0,WeatherDisplay:10.37,2013-01-06 23:08:00,
2013-01-06 15:13:00,45.8,43.3,30.15,NW,316,1.0,4.0,91,0.00,OVC,,0.12,56.0,WeatherDisplay:10.37,2013-01-06 23:13:00,
2013-01-06 15:18:00,45.8,43.3,30.15,NW,318,2.2,3.5,91,0.00,OVC,,0.12,46.0,WeatherDisplay:10.37,2013-01-06 23:18:00,
2013-01-06 15:23:00,45.9,43.4,30.15,NW,322,2.9,4.0,91,0.00,OVC,,0.12,40.0,WeatherDisplay:10.37,2013-01-06 23:23:00,
2013-01-06 15:28:00,45.8,43.3,30.15,NW,322,1.6,3.5,91,0.00,OVC,,0.12,40.0,WeatherDisplay:10.37,2013-01-06 23:28:00,
2013-01-06 15:33:00,45.8,43.3,30.16,NW,317,1.0,3.5,91,0.00,OVC,,0.12,37.0,WeatherDisplay:10.37,2013-01-06 23:33:00,
2013-01-06 15:38:00,45.8,43.3,30.16,NW,314,1.1,4.6,91,0.00,OVC,,0.12,25.0,WeatherDisplay:10.37,2013-01-06 23:38:00,
2013-01-06 15:43:00,45.7,42.9,30.16,NW,320,1.7,3.5,90,0.00,OVC,,0.12,25.0,WeatherDisplay:10.37,2013-01-06 23:43:00,
2013-01-06 15:48:00,45.6,42.8,30.16,NW,315,2.3,4.6,90,0.00,OVC,,0.12,26.0,WeatherDisplay:10.37,2013-01-06 23:48:00,
2013-01-06 15:53:00,45.5,43.0,30.16,NW,311,2.1,4.0,91,0.00,OVC,,0.12,32.0,WeatherDisplay:10.37,2013-01-06 23:53:00,
2013-01-06 15:58:00,45.5,43.0,30.16,NW,311,0.0,1.1,91,0.00,OVC,,0.12,35.0,WeatherDisplay:10.37,2013-01-06 23:58:00,
2013-01-06 16:03:00,45.4,42.9,30.16,NW,311,2.7,4.0,91,0.00,OVC,,0.12,32.0,WeatherDisplay:10.37,2013-01-07 00:03:00,
2013-01-06 16:08:00,45.4,42.9,30.16,NW,311,1.3,2.3,91,0.00,OVC,,0.12,25.0,WeatherDisplay:10.37,2013-01-07 00:08:00,
2013-01-06 16:13:00,45.3,42.8,30.16,NW,311,1.3,3.5,91,0.00,OVC,,0.12,19.0,WeatherDisplay:10.37,2013-01-07 00:13:00,
2013-01-06 16:18:00,45.2,42.7,30.16,NW,307,2.5,3.5,91,0.00,OVC,,0.12,18.0,WeatherDisplay:10.37,2013-01-07 00:18:00,
2013-01-06 16:23:00,45.0,42.5,30.16,WNW,283,3.6,5.0,91,0.00,OVC,,0.12,19.0,WeatherDisplay:10.37,2013-01-07 00:23:00,
2013-01-06 16:28:00,44.9,42.4,30.16,West,269,1.9,3.5,91,0.00,OVC,,0.12,18.0,WeatherDisplay:10.37,2013-01-07 00:28:00,
2013-01-06 16:33:00,44.7,42.2,30.16,West,279,2.2,3.5,91,0.00,OVC,,0.12,18.0,WeatherDisplay:10.37,2013-01-07 00:33:00,
2013-01-06 16:38:00,44.6,42.1,30.16,West,278,1.1,2.3,91,0.00,OVC,,0.12,12.0,WeatherDisplay:10.37,2013-01-07 00:38:00,
2013-01-06 16:43:00,44.5,42.3,30.16,West,269,3.8,6.9,92,0.00,OVC,,0.12,9.0,WeatherDisplay:10.37,2013-01-07 00:43:00,
2013-01-06 16:48:00,44.5,42.3,30.16,WSW,253,4.8,5.8,92,0.00,OVC,,0.12,9.0,WeatherDisplay:10.37,2013-01-07 00:48:00,
2013-01-06 16:53:00,44.4,42.2,30.16,WSW,237,3.1,5.8,92,0.00,OVC,,0.12,7.0,WeatherDisplay:10.37,2013-01-07 00:53:00,
2013-01-06 16:58:00,44.3,42.1,30.16,WSW,244,5.0,6.9,92,0.00,OVC,,0.12,7.0,WeatherDisplay:10.37,2013-01-07 00:58:00,
2013-01-06 17:03:00,44.3,42.1,30.16,SW,228,7.2,9.0,92,0.00,OVC,,0.12,5.0,WeatherDisplay:10.37,2013-01-07 01:03:00,
2013-01-06 17:08:00,44.2,42.0,30.16,SW,220,7.4,10.4,92,0.00,OVC,,0.12,7.0,WeatherDisplay:10.37,2013-01-07 01:08:00,
2013-01-06 17:13:00,44.1,41.9,30.16,SW,232,7.4,9.2,92,0.00,OVC,,0.12,5.0,WeatherDisplay:10.37,2013-01-07 01:13:00,
2013-01-06 17:18:00,44.0,41.8,30.16,WSW,246,7.7,10.4,92,0.00,OVC,,0.12,0.0,WeatherDisplay:10.37,2013-01-07 01:18:00,
2013-01-06 17:23:00,43.9,41.4,30.16,WSW,244,6.9,11.5,91,0.00,OVC,,0.12,0.0,WeatherDisplay:10.37,2013-01-07 01:23:00,
2013-01-06 17:28:00,43.8,41.3,30.16,WSW,238,6.8,9.2,91,0.00,OVC,,0.12,0.0,WeatherDisplay:10.37,2013-01-07 01:28:00,
2013-01-06 17:33:00,43.8,41.3,30.16,SW,228,5.6,9.2,91,0.00,OVC,,0.12,0.0,WeatherDisplay:10.37,2013-01-07 01:33:00,
2013-01-06 17:38:00,43.7,41.2,30.16,WSW,253,7.3,9.2,91,0.00,OVC,,0.12,0.0,WeatherDisplay:10.37,2013-01-07 01:38:00,
2013-01-06 17:43:00,43.7,41.0,30.16,WSW,253,6.8,9.0,90,0.00,OVC,,0.12,0.0,WeatherDisplay:10.37,2013-01-07 01:43:00,
2013-01-06 17:48:00,43.7,41.0,30.16,West,259,8.5,10.0,90,0.00,OVC,,0.12,0.0,WeatherDisplay:10.37,2013-01-07 01:48:00,
2013-01-06 17:53:00,43.8,41.1,30.16,WSW,257,6.2,10.0,90,0.00,OVC,,0.12,0.0,WeatherDisplay:10.37,2013-01-07 01:53:00,
2013-01-06 17:58:00,43.8,40.8,30.16,WSW,253,4.1,6.9,89,0.00,OVC,,0.12,0.0,WeatherDisplay:10.37,2013-01-07 01:58:00,
2013-01-06 18:03:00,43.8,40.8,30.16,West,266,6.6,9.2,89,0.00,FEW,,0.12,0.0,WeatherDisplay:10.37,2013-01-07 02:03:00,
2013-01-06 18:08:00,43.7,40.7,30.16,WSW,247,6.3,8.1,89,0.00,FEW,,0.12,0.0,WeatherDisplay:10.37,2013-01-07 02:08:00,
2013-01-06 18:13:00,43.7,40.7,30.16,WSW,237,5.6,8.1,89,0.00,FEW,,0.12,0.0,WeatherDisplay:10.37,2013-01-07 02:13:00,
2013-01-06 18:18:00,43.6,40.6,30.16,West,262,5.7,9.2,89,0.00,FEW,,0.12,0.0,WeatherDisplay:10.37,2013-01-07 02:18:00,
2013-01-06 18:23:00,43.7,40.7,30.16,West,259,6.4,8.1,89,0.00,FEW,,0.12,0.0,WeatherDisplay:10.37,2013-01-07 02:23:00,
2013-01-06 18:28:00,43.7,40.7,30.16,WSW,241,5.2,8.0,89,0.00,FEW,,0.12,0.0,WeatherDisplay:10.37,2013-01-07 02:28:00,
2013-01-06 18:33:00,43.6,40.6,30.16,WSW,251,5.2,6.9,89,0.00,FEW,,0.12,0.0,WeatherDisplay:10.37,2013-01-07 02:33:00,
2013-01-06 18:38:00,43.6,40.6,30.16,WSW,251,4.1,8.1,89,0.00,FEW,,0.12,0.0,WeatherDisplay:10.37,2013-01-07 02:38:00,
2013-01-06 18:43:00,43.5,40.5,30.16,West,266,3.8,5.8,89,0.00,FEW,,0.12,0.0,WeatherDisplay:10.37,2013-01-07 02:43:00,
2013-01-06 18:48:00,43.5,40.5,30.16,WSW,244,5.3,6.9,89,0.00,FEW,,0.12,0.0,WeatherDisplay:10.37,2013-01-07 02:48:00,
2013-01-06 18:53:00,43.4,40.4,30.17,WSW,255,4.4,6.9,89,0.00,FEW,,0.12,0.0,WeatherDisplay:10.37,2013-01-07 02:53:00,
2013-01-06 18:58:00,43.4,40.1,30.17,West,265,4.8,6.9,88,0.00,FEW,,0.12,0.0,WeatherDisplay:10.37,2013-01-07 02:58:00,
2013-01-06 19:03:00,43.5,40.2,30.17,WSW,247,3.2,5.0,88,0.00,FEW,,0.12,0.0,WeatherDisplay:10.37,2013-01-07 03:03:00,
2013-01-06 19:08:00,43.5,40.2,30.16,SW,234,4.8,5.8,88,0.00,FEW,,0.12,0.0,WeatherDisplay:10.37,2013-01-07 03:08:00,
2013-01-06 19:13:00,43.4,40.1,30.17,WSW,237,4.0,4.6,88,0.00,CLR,,0.12,0.0,WeatherDisplay:10.37,2013-01-07 03:13:00,
2013-01-06 19:18:00,43.4,40.1,30.17,WSW,243,2.2,4.6,88,0.00,CLR,,0.12,0.0,WeatherDisplay:10.37,2013-01-07 03:18:00,
2013-01-06 19:23:00,43.3,40.0,30.17,WSW,246,2.8,4.6,88,0.00,CLR,,0.12,0.0,WeatherDisplay:10.37,2013-01-07 03:23:00,
2013-01-06 19:28:00,43.3,40.0,30.17,West,259,4.2,6.0,88,0.00,CLR,,0.12,0.0,WeatherDisplay:10.37,2013-01-07 03:28:00,
2013-01-06 19:33:00,43.3,40.0,30.17,West,264,2.4,3.5,88,0.00,CLR,,0.12,0.0,WeatherDisplay:10.37,2013-01-07 03:33:00,
2013-01-06 19:38:00,43.2,39.9,30.17,WSW,257,2.8,5.0,88,0.00,CLR,,0.12,0.0,WeatherDisplay:10.37,2013-01-07 03:38:00,
2013-01-06 19:43:00,43.3,40.0,30.17,WSW,242,2.8,4.6,88,0.00,CLR,,0.12,0.0,WeatherDisplay:10.37,2013-01-07 03:43:00,
2013-01-06 19:48:00,43.3,40.0,30.17,WSW,255,4.8,5.8,88,0.00,CLR,,0.12,0.0,WeatherDisplay:10.37,2013-01-07 03:48:00,
2013-01-06 19:53:00,43.4,39.8,30.17,WSW,247,2.8,5.8,87,0.00,CLR,,0.12,0.0,WeatherDisplay:10.37,2013-01-07 03:53:00,
2013-01-06 19:58:00,43.5,39.9,30.17,SW,232,4.9,6.9,87,0.00,CLR,,0.12,0.0,WeatherDisplay:10.37,2013-01-07 03:58:00,
2013-01-06 20:03:00,43.5,39.9,30.17,WSW,243,4.4,6.9,87,0.00,CLR,,0.12,0.0,WeatherDisplay:10.37,2013-01-07 04:03:00,
2013-01-06 20:08:00,43.6,39.7,30.17,WSW,250,5.9,8.0,86,0.00,CLR,,0.12,0.0,WeatherDisplay:10.37,2013-01-07 04:08:00,
2013-01-06 20:13:00,43.8,39.9,30.18,WSW,254,6.2,9.2,86,0.00,CLR,,0.12,0.0,WeatherDisplay:10.37,2013-01-07 04:13:00,
2013-01-06 20:18:00,44.1,39.9,30.18,West,261,4.9,8.1,85,0.00,CLR,,0.12,0.0,WeatherDisplay:10.37,2013-01-07 04:18:00,
2013-01-06 20:23:00,44.2,40.0,30.18,WSW,249,4.9,7.0,85,0.00,CLR,,0.12,0.0,WeatherDisplay:10.37,2013-01-07 04:23:00,
2013-01-06 20:28:00,44.3,39.8,30.18,WSW,257,6.7,9.2,84,0.00,CLR,,0.12,0.0,WeatherDisplay:10.37,2013-01-07 04:28:00,
2013-01-06 20:33:00,44.3,39.8,30.18,WSW,255,7.4,9.0,84,0.00,CLR,,0.12,0.0,WeatherDisplay:10.37,2013-01-07 04:33:00,
2013-01-06 20:38:00,44.3,39.8,30.18,WSW,245,6.9,9.2,84,0.00,CLR,,0.12,0.0,WeatherDisplay:10.37,2013-01-07 04:38:00,
2013-01-06 20:43:00,44.4,40.2,30.19,WSW,254,6.7,9.0,85,0.00,CLR,,0.12,0.0,WeatherDisplay:10.37,2013-01-07 04:43:00,
2013-01-06 20:48:00,44.5,40.6,30.19,WSW,251,7.0,9.2,86,0.00,CLR,,0.12,0.0,WeatherDisplay:10.37,2013-01-07 04:48:00,
2013-01-06 20:53:00,44.6,40.7,30.19,WSW,241,5.7,8.1,86,0.00,CLR,,0.12,0.0,WeatherDisplay:10.37,2013-01-07 04:53:00,
2013-01-06 20:58:00,44.6,40.7,30.19,WSW,238,5.8,8.0,86,0.00,CLR,,0.12,0.0,WeatherDisplay:10.37,2013-01-07 04:58:00,
2013-01-06 21:00:00,44.6,40.7,30.19,SW,226,5.9,8.1,86,0.00,CLR,,0.12,0.0,WeatherDisplay:10.37,2013-01-07 05:00:00,
2013-01-06 21:02:00,44.6,40.7,30.19,WSW,253,5.8,8.1,86,0.00,CLR,,0.12,0.0,WeatherDisplay:10.37,2013-01-07 05:02:00,
2013-01-06 21:07:00,44.6,40.7,30.19,WSW,242,4.9,6.9,86,0.00,CLR,,0.12,0.0,WeatherDisplay:10.37,2013-01-07 05:07:00,
2013-01-06 21:12:00,44.6,41.0,30.19,West,264,6.3,8.1,87,0.00,CLR,,0.12,0.0,WeatherDisplay:10.37,2013-01-07 05:12:00,
2013-01-06 21:17:00,44.6,41.0,30.19,WNW,282,3.4,5.0,87,0.00,CLR,,0.12,0.0,WeatherDisplay:10.37,2013-01-07 05:17:00,
2013-01-06 21:22:00,44.6,41.0,30.19,WNW,299,6.2,8.1,87,0.00,CLR,,0.12,0.0,WeatherDisplay:10.37,2013-01-07 05:22:00,
2013-01-06 21:27:00,44.5,40.9,30.19,WNW,282,5.2,6.9,87,0.00,CLR,,0.12,0.0,WeatherDisplay:10.37,2013-01-07 05:27:00,
2013-01-06 21:32:00,44.5,41.2,30.20,West,274,3.1,3.5,88,0.00,CLR,,0.12,0.0,WeatherDisplay:10.37,2013-01-07 05:32:00,
2013-01-06 21:37:00,44.4,41.1,30.19,West,276,1.7,3.5,88,0.00,CLR,,0.12,0.0,WeatherDisplay:10.37,2013-01-07 05:37:00,
2013-01-06 21:42:00,44.3,41.0,30.19,West,276,1.6,3.5,88,0.00,CLR,,0.12,0.0,WeatherDisplay:10.37,2013-01-07 05:42:00,
2013-01-06 21:47:00,44.1,40.8,30.19,West,274,1.8,3.5,88,0.00,CLR,,0.12,0.0,WeatherDisplay:10.37,2013-01-07 05:47:00,
2013-01-06 21:52:00,44.0,41.0,30.18,West,259,2.0,3.5,89,0.00,CLR,,0.12,0.0,WeatherDisplay:10.37,2013-01-07 05:52:00,
2013-01-06 21:57:00,43.8,40.8,30.18,West,259,2.2,3.5,89,0.00,CLR,,0.12,0.0,WeatherDisplay:10.37,2013-01-07 05:57:00,
2013-01-06 22:02:00,43.7,40.7,30.18,WSW,244,2.4,4.6,89,0.00,CLR,,0.12,0.0,WeatherDisplay:10.37,2013-01-07 06:02:00,
2013-01-06 22:07:00,43.6,40.9,30.18,WSW,242,4.0,5.8,90,0.00,CLR,,0.12,0.0,WeatherDisplay:10.37,2013-01-07 06:07:00,
2013-01-06 22:12:00,43.7,41.2,30.18,SW,235,4.0,5.0,91,0.00,CLR,,0.12,0.0,WeatherDisplay:10.37,2013-01-07 06:12:00,
2013-01-06 22:17:00,43.6,41.1,30.18,SW,233,2.8,4.6,91,0.00,CLR,,0.12,0.0,WeatherDisplay:10.37,2013-01-07 06:17:00,
2013-01-06 22:22:00,43.6,41.1,30.18,SW,226,3.9,5.0,91,0.00,CLR,,0.12,0.0,WeatherDisplay:10.37,2013-01-07 06:22:00,
2013-01-06 22:27:00,43.5,41.0,30.18,SW,224,4.3,5.0,91,0.00,CLR,,0.12,0.0,WeatherDisplay:10.37,2013-01-07 06:27:00,
2013-01-06 22:32:00,43.5,41.0,30.17,SW,224,4.5,5.0,91,0.00,CLR,,0.12,0.0,WeatherDisplay:10.37,2013-01-07 06:32:00,
2013-01-06 22:37:00,43.5,41.3,30.17,SW,228,4.3,5.8,92,0.00,CLR,,0.12,0.0,WeatherDisplay:10.37,2013-01-07 06:37:00,
2013-01-06 22:42:00,43.5,41.3,30.17,SW,224,5.0,6.9,92,0.00,CLR,,0.12,0.0,WeatherDisplay:10.37,2013-01-07 06:42:00,
2013-01-06 22:47:00,43.6,41.4,30.17,SW,229,7.3,9.2,92,0.00,CLR,,0.12,0.0,WeatherDisplay:10.37,2013-01-07 06:47:00,
2013-01-06 22:52:00,43.8,41.6,30.17,SW,227,7.3,10.0,92,0.00,CLR,,0.12,0.0,WeatherDisplay:10.37,2013-01-07 06:52:00,
2013-01-06 22:57:00,44.0,41.5,30.17,SW,235,5.9,9.2,91,0.00,CLR,,0.12,0.0,WeatherDisplay:10.37,2013-01-07 06:57:00,
2013-01-06 23:02:00,44.2,41.5,30.17,SW,225,6.6,10.4,90,0.00,CLR,,0.12,0.0,WeatherDisplay:10.37,2013-01-07 07:02:00,
2013-01-06 23:07:00,44.5,41.5,30.18,WSW,253,6.9,10.4,89,0.00,CLR,,0.12,0.0,WeatherDisplay:10.37,2013-01-07 07:07:00,
2013-01-06 23:12:00,44.7,41.4,30.18,WSW,251,9.5,13.0,88,0.00,FEW,,0.12,0.0,WeatherDisplay:10.37,2013-01-07 07:12:00,
2013-01-06 23:17:00,45.1,41.2,30.18,WSW,247,8.4,10.4,86,0.00,FEW,,0.12,0.0,WeatherDisplay:10.37,2013-01-07 07:17:00,
2013-01-06 23:23:00,45.5,41.3,30.18,WSW,247,6.3,9.2,85,0.00,FEW,,0.12,0.0,WeatherDisplay:10.37,2013-01-07 07:23:00,
2013-01-06 23:28:00,45.5,41.3,30.18,West,262,6.6,9.2,85,0.00,FEW,,0.12,0.0,WeatherDisplay:10.37,2013-01-07 07:28:00,
2013-01-06 23:33:00,45.6,41.4,30.18,WSW,247,6.3,10.4,85,0.00,FEW,,0.12,0.0,WeatherDisplay:10.37,2013-01-07 07:33:00,
2013-01-06 23:38:00,45.7,41.1,30.18,WSW,250,6.3,10.4,84,0.00,FEW,,0.12,0.0,WeatherDisplay:10.37,2013-01-07 07:38:00,
2013-01-06 23:43:00,45.7,41.1,30.18,WSW,258,5.5,8.1,84,0.00,FEW,,0.12,0.0,WeatherDisplay:10.37,2013-01-07 07:43:00,
2013-01-06 23:48:00,45.7,41.1,30.18,West,272,6.2,8.1,84,0.00,FEW,,0.12,0.0,WeatherDisplay:10.37,2013-01-07 07:48:00,
2013-01-06 23:53:00,45.7,41.4,30.18,WSW,258,6.5,8.1,85,0.00,FEW,,0.12,0.0,WeatherDisplay:10.37,2013-01-07 07:53:00,
2013-01-06 23:58:00,45.6,41.4,30.18,WSW,254,5.9,7.0,85,0.00,FEW,,0.12,0.0,WeatherDisplay:10.37,2013-01-07 07:58:00,